Weather History for Moses Lake, WA

Change the Weather History Date:

Wednesday, January 9, 2013

  Actual Average Record
Temperature  
Mean Temperature 41 °F 29 °F  
Max Temperature 49 °F 35 °F 53 °F (1997)
Min Temperature 33 °F 23 °F 9 °F (1982)
Degree Days  
Heating Degree Days 24 36  
Month to date heating degree days 324 330  
Since 1 July heating degree days 2532 2917  
Cooling Degree Days 0 0  
Month to date cooling degree days 0 0  
Year to date cooling degree days 0 0  
Moisture  
Dew Point 31 °F    
Average Humidity 66    
Maximum Humidity 79    
Minimum Humidity 53    
Precipitation  
Precipitation 0.00 in 0.05 in 0.20 in (1986)
Month to date precipitation 0.27 0.45  
Year to date precipitation 0.27 0.45  
Sea Level Pressure  
Sea Level Pressure 29.72 in    
Wind  
Wind Speed 13 mph (SSW)    
Max Wind Speed 28 mph    
Max Gust Speed 35 mph    
Visibility 10 miles    
Events      
T = Trace of Precipitation, MM = Missing Value Source: NWS Daily Summary

Daily Weather History Graph

Daily Weather History Graph

Search for Another Location

Airport:

Trip Planner

Search our weather history database for the weather conditions in past years. The results will help you decide how hot, cold, wet, or windy it might be!

Date:

Astronomy

Jan. 09, 2013 Rise Set
Actual Time 7:42 AM PST 4:27 PM PST
Civil Twilight 7:07 AM PST 5:02 PM PST
Nautical Twilight 6:29 AM PST 5:40 PM PST
Astronomical Twilight 5:52 AM PST 6:17 PM PST
Moon 5:27 AM PST (1/9) 2:33 PM PST (1/9)
Length of Visible Light 9h 54m
Length of Day
8h 44m
Waning Crescent, 6% of the Moon is Illuminated
Jan 9
Waning Crescent
Jan 11
New
Jan 18
First Quarter
Jan 26
Full
Feb 3
Last Quarter

Hourly Weather History & Observations

Time (PST) Temp. Windchill Dew Point Humidity Pressure Visibility Wind Dir Wind Speed Gust Speed Precip Events Conditions
12:52 AM 48.0 °F - 35.1 °F 61% 29.79 in 10.0 mi South 25.3 mph 33.4 mph N/A   Clear
1:52 AM 48.9 °F - 34.0 °F 56% 29.79 in 10.0 mi South 21.9 mph 28.8 mph N/A   Clear
2:52 AM 45.0 °F 38.5 °F 35.1 °F 68% 29.80 in 10.0 mi South 13.8 mph - N/A   Clear
3:52 AM 44.1 °F 36.5 °F 34.0 °F 68% 29.77 in 10.0 mi South 17.3 mph - N/A   Clear
4:52 AM 45.0 °F 37.6 °F 32.0 °F 60% 29.73 in 10.0 mi South 17.3 mph 23.0 mph N/A   Clear
5:52 AM 42.1 °F 35.2 °F 33.1 °F 70% 29.71 in 10.0 mi SSE 12.7 mph - N/A   Clear
6:52 AM 42.1 °F 35.7 °F 33.1 °F 70% 29.68 in 10.0 mi South 11.5 mph - N/A   Clear
7:52 AM 46.0 °F 38.8 °F 33.1 °F 61% 29.66 in 10.0 mi South 18.4 mph 23.0 mph N/A   Clear
8:52 AM 46.4 °F 39.8 °F 33.8 °F 62% 29.61 in 10.0 mi South 16.1 mph - N/A   Scattered Clouds
9:52 AM 45.0 °F 38.2 °F 36.0 °F 71% 29.62 in 10.0 mi South 15.0 mph - N/A   Overcast
10:52 AM 46.9 °F - 37.0 °F 68% 29.61 in 10.0 mi South 15.0 mph - N/A   Clear
11:52 AM 48.9 °F - 34.0 °F 56% 29.61 in 10.0 mi SW 18.4 mph 24.2 mph N/A   Partly Cloudy
12:52 PM 46.0 °F 38.8 °F 30.0 °F 54% 29.75 in 10.0 mi SW 18.4 mph - N/A   Mostly Cloudy
1:52 PM 44.1 °F 38.1 °F 30.9 °F 60% 29.77 in 10.0 mi West 11.5 mph - N/A   Partly Cloudy
2:52 PM 44.1 °F 38.1 °F 33.1 °F 65% 29.66 in 10.0 mi WSW 11.5 mph - N/A   Clear
3:52 PM 43.0 °F 37.7 °F 32.0 °F 65% 29.68 in 10.0 mi WSW 9.2 mph - N/A   Scattered Clouds
4:52 PM 42.1 °F 37.7 °F 30.0 °F 62% 29.70 in 10.0 mi WSW 6.9 mph - N/A   Mostly Cloudy
5:52 PM 41.0 °F 35.8 °F 27.0 °F 57% 29.73 in 10.0 mi SW 8.1 mph - N/A   Overcast
6:52 PM 39.0 °F 35.7 °F 26.1 °F 60% 29.75 in 10.0 mi SW 4.6 mph - N/A   Clear
7:52 PM 37.9 °F 32.7 °F 26.1 °F 62% 29.76 in 10.0 mi WSW 6.9 mph - N/A   Clear
8:52 PM 35.1 °F - 26.1 °F 70% 29.78 in 10.0 mi Calm Calm - N/A   Clear
9:52 PM 37.0 °F 31.0 °F 24.1 °F 59% 29.80 in 10.0 mi WSW 8.1 mph - N/A   Clear
10:52 PM 35.1 °F 27.9 °F 21.9 °F 59% 29.80 in 10.0 mi West 9.2 mph - N/A   Clear
11:52 PM 34.0 °F 25.5 °F 23.0 °F 64% 29.80 in 10.0 mi WSW 11.5 mph - N/A   Clear